Wind_Speed
112 110 109 110 111 111 104 98 95 96 96 95 93 87 83 78 72 68 61 60 60 58 59 66 65 62 57 55 44 45 43 43
116 115 116 116 109 104 98 93 91 89 88 88 89 86 80 74 70 66 61 54 57 60 61 66 77 70 66 60 56 60 50 44
105 103 101 98 95 92 91 89 87 87 86 86 85 83 78 75 69 64 61 58 55 58 64 66 79 75 68 72 71 68 59 47
100 98 97 97 95 91 86 85 82 80 81 84 84 83 81 78 73 64 63 62 59 61 64 71 83 73 82 75 65 65 56 50
92 93 94 94 93 90 86 84 81 77 78 78 80 80 81 81 79 74 66 63 65 63 68 77 89 79 80 76 79 68 59 49
83 85 84 84 82 81 80 79 78 77 76 75 74 75 76 76 78 82 76 69 65 70 74 82 91 93 84 73 63 68 62 56
76 76 69 69 65 62 61 61 62 63 66 68 69 68 67 70 75 80 83 80 70 72 78 88 93 103 101 95 70 66 59 49
72 72 70 63 54 53 52 52 52 52 54 57 60 62 63 63 68 75 82 86 81 77 82 90 97 102 103 105 85 78 61 68
69 68 65 59 54 50 47 44 43 42 45 47 52 55 59 59 60 67 75 86 88 82 86 94 100 107 111 106 93 84 83 64
68 65 60 56 51 48 44 42 39 37 38 40 43 48 52 53 57 61 70 82 90 90 91 99 103 111 117 111 107 92 89 89
69 65 61 57 53 47 43 40 39 35 31 33 35 40 44 48 52 56 65 76 88 94 92 101 108 116 120 121 110 110 96 97
69 66 62 59 53 48 44 40 37 32 30 30 32 34 36 41 46 49 59 72 84 96 98 100 112 121 124 125 121 112 106 100
71 68 64 63 58 51 44 41 36 33 29 26 28 30 32 33 39 45 53 66 81 92 101 101 111 119 123 124 128 124 116 104
72 69 66 66 65 56 49 42 38 33 28 27 27 27 26 31 32 40 50 60 74 89 101 107 108 119 124 128 130 129 123 106
71 69 67 69 69 64 55 47 40 35 30 25 23 24 26 28 30 35 45 55 67 81 96 108 112 114 127 132 133 131 124 117
71 69 68 70 70 68 63 53 45 37 31 27 23 22 24 27 29 31 42 51 58 72 87 102 113 114 120 132 134 135 128 128
70 69 67 68 69 69 67 61 51 42 32 28 23 20 23 24 27 29 37 47 52 59 73 91 105 114 116 126 132 133 133 133
70 70 68 66 69 70 68 64 56 47 37 29 25 20 21 22 25 29 35 43 49 55 62 77 95 108 115 115 128 140 136 128
70 70 69 66 67 70 70 66 60 51 41 31 25 21 20 21 23 28 33 40 46 52 58 66 80 95 107 114 120 134 137 134
Wind_Direction
291 289 288 286 286 288 287 283 281 278 276 277 276 274 273 271 268 266 260 252 248 235 225 217 215 213 211 223 235 251 247 251
294 292 291 292 289 287 285 282 278 275 272 272 272 272 270 265 263 260 255 248 240 231 223 214 216 211 215 214 210 233 241 249
299 298 295 292 289 285 283 280 276 273 271 268 266 266 265 265 261 254 248 244 234 226 219 213 215 214 213 217 214 223 234 239
301 298 295 294 292 290 286 282 278 274 270 265 261 258 256 256 254 249 244 239 232 227 221 210 208 213 208 215 215 220 227 232
301 299 298 297 295 294 290 286 281 276 272 267 262 257 252 249 248 245 240 235 229 222 213 207 205 204 204 213 214 213 223 219
303 301 299 297 292 287 284 282 280 278 276 272 265 259 254 248 242 239 238 235 228 220 209 207 206 202 203 203 205 211 221 225
313 311 306 299 295 293 289 283 278 274 272 269 267 262 254 247 240 234 232 233 227 216 207 204 205 206 206 209 212 206 215 208
323 322 316 311 307 303 298 291 286 280 274 268 264 261 257 247 238 231 227 226 226 214 208 204 204 208 207 209 210 206 195 203
329 328 322 319 315 313 307 301 295 286 277 271 264 258 253 248 239 230 225 221 220 215 208 202 202 205 206 210 208 206 204 206
333 334 331 326 324 321 318 311 305 295 285 272 262 258 254 246 239 229 222 218 217 216 207 203 204 203 208 208 209 203 207 211
336 338 341 341 335 329 326 320 315 306 292 278 264 257 253 248 240 230 220 216 215 213 209 204 203 204 207 208 207 209 208 213
339 342 345 348 346 338 332 330 323 314 301 283 270 257 252 249 243 233 221 215 213 212 211 206 205 204 207 209 207 209 209 211
340 344 346 350 352 347 342 336 331 323 310 293 279 264 250 243 242 234 225 216 212 210 209 208 205 205 206 209 209 209 211 211
342 345 347 350 353 354 351 344 337 331 320 303 289 264 251 239 236 234 229 219 214 211 209 209 206 205 206 208 209 210 210 208
344 346 347 352 352 353 354 351 344 337 329 313 296 265 255 249 238 233 230 224 216 214 211 210 210 206 205 207 208 208 208 205
346 347 349 350 352 354 354 353 350 343 334 321 303 275 258 254 242 231 230 228 222 217 215 213 212 209 207 206 208 209 208 207
346 347 350 349 352 354 354 353 352 347 339 328 311 292 263 264 248 231 231 231 229 222 218 216 215 214 210 207 208 208 209 208
346 348 349 348 351 354 355 353 351 350 343 335 319 304 276 272 253 239 235 230 229 228 221 217 216 216 214 209 208 206 206 208
346 347 349 347 350 352 354 355 352 352 347 339 328 311 288 277 257 243 241 239 231 230 227 221 219 218 216 213 209 210 210 207
Height
10634 10624 10614 10604 10597 10590 10584 10581 10578 10574 10568 10564 10566 10574 10580 10583 10587 10595 10606 10617 10625 10636 10646 10656 10664 10670 10676 10686 10696 10701 10706 10710
10601 10591 10580 10570 10564 10557 10551 10547 10545 10543 10543 10542 10541 10543 10551 10559 10566 10571 10581 10591 10602 10614 10625 10633 10644 10652 10661 10672 10672 10678 10696 10700
10573 10560 10547 10536 10527 10522 10517 10516 10515 10514 10514 10515 10516 10520 10526 10531 10543 10550 10558 10567 10579 10590 10603 10614 10626 10638 10650 10657 10665 10675 10684 10690
10547 10532 10517 10506 10496 10490 10486 10483 10481 10481 10481 10482 10486 10493 10500 10506 10515 10527 10535 10544 10556 10569 10583 10594 10607 10618 10631 10640 10647 10655 10669 10677
10523 10506 10491 10479 10466 10457 10450 10445 10444 10447 10447 10448 10452 10458 10469 10480 10489 10501 10511 10521 10532 10546 10559 10572 10584 10598 10611 10622 10630 10640 10652 10661
10499 10482 10466 10453 10441 10430 10423 10419 10417 10415 10413 10413 10417 10424 10435 10446 10462 10473 10484 10497 10509 10520 10535 10551 10563 10578 10592 10605 10615 10627 10636 10646
10475 10458 10446 10431 10418 10408 10401 10395 10393 10391 10388 10385 10385 10391 10401 10413 10428 10443 10458 10472 10486 10497 10511 10528 10543 10558 10573 10588 10602 10609 10621 10636
10459 10440 10423 10410 10400 10390 10382 10375 10371 10369 10365 10362 10361 10364 10370 10382 10395 10411 10426 10443 10460 10477 10488 10505 10522 10536 10553 10567 10583 10591 10599 10618
10449 10430 10411 10396 10384 10374 10364 10358 10353 10350 10345 10342 10340 10340 10344 10355 10368 10383 10399 10414 10432 10452 10466 10481 10500 10515 10531 10549 10564 10572 10584 10593
10441 10422 10404 10386 10372 10362 10351 10343 10338 10333 10328 10324 10322 10321 10325 10334 10344 10360 10375 10388 10407 10425 10444 10459 10477 10492 10510 10528 10545 10556 10568 10580
10432 10416 10397 10378 10363 10351 10341 10332 10324 10318 10313 10309 10307 10306 10309 10316 10325 10339 10354 10368 10384 10401 10421 10437 10453 10470 10486 10505 10521 10538 10551 10563
10424 10408 10392 10375 10359 10345 10333 10323 10314 10308 10302 10297 10294 10294 10297 10302 10309 10322 10334 10347 10361 10378 10396 10415 10429 10448 10465 10482 10500 10516 10534 10548
10417 10401 10385 10370 10355 10340 10327 10316 10307 10299 10293 10288 10285 10284 10285 10290 10296 10305 10314 10327 10340 10355 10374 10391 10408 10425 10440 10459 10477 10495 10514 10530
10411 10394 10379 10365 10349 10335 10321 10309 10300 10292 10286 10281 10276 10275 10275 10278 10283 10290 10298 10309 10319 10335 10351 10366 10385 10400 10415 10432 10450 10471 10492 10511
10405 10389 10374 10359 10344 10330 10316 10304 10294 10285 10278 10273 10269 10267 10267 10269 10273 10279 10284 10293 10303 10315 10330 10345 10360 10377 10392 10408 10426 10447 10469 10490
10400 10386 10370 10355 10341 10326 10311 10299 10288 10279 10272 10266 10262 10260 10260 10261 10263 10266 10272 10278 10288 10297 10309 10324 10336 10356 10373 10390 10407 10428 10448 10468
10396 10383 10367 10355 10341 10324 10309 10296 10285 10274 10266 10259 10254 10252 10252 10252 10253 10254 10259 10265 10273 10283 10294 10306 10320 10335 10351 10371 10391 10408 10429 10449
10393 10379 10366 10353 10339 10324 10309 10294 10282 10271 10261 10255 10248 10244 10243 10244 10244 10245 10247 10252 10259 10267 10277 10287 10298 10312 10331 10353 10374 10392 10410 10430
10389 10377 10364 10351 10338 10323 10308 10292 10278 10267 10257 10250 10243 10238 10236 10236 10237 10237 10239 10242 10248 10253 10261 10271 10281 10293 10311 10332 10354 10371 10391 10410